Location: Beau Repaire
(50.6144°N, 4.0551°E)
Time: 12:04:19
(UTC+00:00)

SPOT 3 Rocket - Pass Details

Date: 15 May 2026
Orbit: 774 x 790 km, 98.5° (Epoch: 5 June)

Event Time Altitude Azimuth Distance (km) Brightness Sun altitude
Exits shadow 21:09:24 14° 172° (S) 2,046 5.2 -12.9°
Maximum altitude 21:13:49 73° 256° (WSW) 816 3.7 -13.3°
Drops below altitude 10° 21:18:58 10° 342° (NNW) 2,335 7.3 -13.7°
Sets 21:21:18 0° 344° (NNW) 3,266 8.3 -13.9°
